Lake Charles, LA

9:04 AM CDT on August 29, 2016 (GMT -0500)
Lake Charles Regional

Weather History for KLCH - July, 2013

Change the Weather History Date:

Tuesday, July 9, 2013

  Actual Average Record
Temperature  
Mean Temperature 85 °F 83 °F  
Max Temperature 95 °F 91 °F 101 °F (1917)
Min Temperature 75 °F 75 °F 65 °F (1947)
Degree Days  
Heating Degree Days 0 0  
Month to date heating degree days 0 0  
Since 1 June heating degree days 0 0  
Since 1 July heating degree days 0 0  
Cooling Degree Days 20 18  
Month to date cooling degree days 156 159  
Year to date cooling degree days 1186 1177  
Since 1 June cooling degree days 701 639  
Growing Degree Days 35 (Base 50)    
Moisture  
Dew Point 74 °F    
Average Humidity 71    
Maximum Humidity 100    
Minimum Humidity 42    
Precipitation  
Precipitation 0.00 in 0.19 in 3.33 in (1914)
Month to date precipitation 0.05 1.84  
Year to date precipitation 33.63 29.57  
Snow  
Snow 0.00 in 0.00 in 0.00 in ()
Month to date snowfall 0.0 0.0  
Since 1 June snowfall 0.0 0.0  
Since 1 July snowfall 0.0 0.0  
Snow Depth 0.00 in    
Sea Level Pressure  
Sea Level Pressure 30.14 in    
Wind  
Wind Speed 4 mph (SSE)    
Max Wind Speed 16 mph    
Max Gust Speed 25 mph    
Visibility 10 miles    
Events Thunderstorm    
T = Trace of Precipitation, MM = Missing Value Source: NWS Daily Summary

Daily Weather History Graph

Daily Weather History Graph

Search for Another Location

Airport or City:

Trip Planner

Search our weather history database for the weather conditions in past years. The results will help you decide how hot, cold, wet, or windy it might be!

Date:

Astronomy

Jul. 09, 2013 Rise Set
Actual Time 6:18 AM CDT 8:17 PM CDT
Civil Twilight 5:51 AM CDT 8:44 PM CDT
Nautical Twilight 5:18 AM CDT 9:17 PM CDT
Astronomical Twilight 4:43 AM CDT 9:52 PM CDT
Moon 7:34 AM CDT (7/9) 9:06 PM CDT (7/9)
Length of Visible Light 14h 52m
Length of Day
13h 58m
New Moon, 2% of the Moon is Illuminated
Jul 9
New Moon
Jul 15
First Quarter
Jul 22
Full
Jul 29
Last Quarter
Aug 6
New

Hourly Weather History & Observations

Time (CDT) Temp. Heat Index Dew Point Humidity Pressure Visibility Wind Dir Wind Speed Gust Speed Precip Events Conditions
12:53 AM 79.0 °F - 75.9 °F 90% 30.15 in 10.0 mi ESE 3.5 mph - N/A   Clear
1:53 AM 78.1 °F - 75.0 °F 90% 30.15 in 10.0 mi Calm Calm - N/A   Clear
2:53 AM 77.0 °F - 75.0 °F 94% 30.14 in 10.0 mi Calm Calm - N/A   Clear
3:53 AM 77.0 °F - 75.0 °F 94% 30.14 in 10.0 mi Calm Calm - N/A   Clear
4:53 AM 75.9 °F - 73.9 °F 94% 30.14 in 10.0 mi Calm Calm - N/A   Clear
5:53 AM 75.9 °F - 75.0 °F 97% 30.14 in 10.0 mi SE 3.5 mph - N/A   Clear
6:53 AM 77.0 °F - 75.0 °F 94% 30.16 in 9.0 mi East 3.5 mph - N/A   Clear
7:53 AM 80.1 °F 85.8 °F 77.0 °F 90% 30.18 in 10.0 mi Calm Calm - N/A   Clear
8:53 AM 84.9 °F 94.1 °F 75.9 °F 74% 30.19 in 10.0 mi Calm Calm - N/A   Clear
9:53 AM 88.0 °F 94.7 °F 72.0 °F 59% 30.18 in 10.0 mi Calm Calm - N/A   Partly Cloudy
10:08 AM 89.6 °F 98.2 °F 73.4 °F 59% 30.16 in 10.0 mi Calm Calm - N/A   Mostly Cloudy
10:15 AM 89.6 °F 98.2 °F 73.4 °F 59% 30.16 in 10.0 mi Calm Calm - N/A   Partly Cloudy
10:53 AM 89.1 °F 98.0 °F 73.9 °F 61% 30.19 in 10.0 mi ESE 4.6 mph - N/A   Mostly Cloudy
11:53 AM 90.0 °F 95.4 °F 70.0 °F 52% 30.17 in 10.0 mi Calm Calm - N/A   Mostly Cloudy
12:53 PM 91.9 °F 96.9 °F 69.1 °F 47% 30.16 in 10.0 mi East 4.6 mph - N/A   Scattered Clouds
1:53 PM 95.0 °F 99.5 °F 68.0 °F 41% 30.14 in 10.0 mi SE 9.2 mph - N/A   Partly Cloudy
2:39 PM 91.4 °F 98.4 °F 71.6 °F 52% 30.13 in 10.0 mi South 12.7 mph 24.2 mph N/A   Partly Cloudy
2:53 PM 91.0 °F 97.6 °F 71.1 °F 52% 30.14 in 10.0 mi South 12.7 mph 19.6 mph N/A   Partly Cloudy
3:41 PM 91.4 °F 102.5 °F 75.2 °F 59% 30.10 in 10.0 mi South 11.5 mph 18.4 mph N/A Thunderstorm Clear
3:53 PM 91.0 °F 100.4 °F 73.9 °F 57% 30.12 in 10.0 mi South 12.7 mph 19.6 mph N/A Thunderstorm Clear
4:14 PM 91.4 °F 100.1 °F 73.4 °F 55% 30.10 in 10.0 mi South 10.4 mph - N/A   Clear
4:53 PM 89.1 °F 98.0 °F 73.9 °F 61% 30.11 in 10.0 mi South 9.2 mph - N/A   Scattered Clouds
5:53 PM 90.0 °F 96.9 °F 72.0 °F 55% 30.10 in 10.0 mi South 9.2 mph - N/A   Clear
6:53 PM 86.0 °F 93.0 °F 73.0 °F 65% 30.10 in 10.0 mi South 9.2 mph - N/A   Clear
7:53 PM 84.0 °F 91.9 °F 75.0 °F 74% 30.10 in 10.0 mi South 4.6 mph - N/A   Clear
8:53 PM 82.0 °F 88.6 °F 75.0 °F 79% 30.10 in 10.0 mi South 4.6 mph - N/A   Clear
9:53 PM 81.0 °F 86.7 °F 75.0 °F 82% 30.10 in 10.0 mi Calm Calm - N/A   Clear
10:53 PM 80.1 °F 85.1 °F 75.0 °F 85% 30.11 in 10.0 mi Calm Calm - N/A   Clear
11:53 PM 79.0 °F - 75.0 °F 88% 30.12 in 10.0 mi SSE 3.5 mph - N/A   Clear